KJ5FA-10 Weather Reports


time (UTC)temp
C
wind
direction
speed
KPH
gust
KPH
rain 1hr
cm
rain 24hr
cm
rain mn
cm
humidity
%
barometer
mb
20260906163940 36 323 3.2 3.2 0.00 0.00 0.00 43 1014.3
20260906160939 35 239 3.2 3.2 0.00 0.00 0.00 47 1014.3
20260906153940 33 354 1.6 4.8 0.00 0.00 0.00 55 1014.5
20260906150940 31 352 1.6 4.8 0.00 0.00 0.00 58 1014.6
20260906140939 28 8 1.6 3.2 0.00 0.00 0.00 70 1014.8
20260906135438 27 329 1.6 3.2 0.00 0.00 0.00 71 1014.9
20260906133938 27 321 3.2 3.2 0.00 0.00 0.00 75 1014.9
20260906132438 26 356 1.6 1.6 0.00 0.00 0.00 79 1015.2
20260906130939 25 8 1.6 3.2 0.00 0.00 0.00 83 1014.8
20260906125438 24 43 1.6 3.2 0.00 0.00 0.00 87 1015.0
20260906123939 23 9 1.6 1.6 0.00 0.00 0.00 89 1014.7
20260906122439 23 22 3.2 3.2 0.00 0.00 0.00 89 1014.7
20260906120939 23 0 0.0 1.6 0.00 0.00 0.00 89 1014.3
20260906115438 23 84 1.6 1.6 0.00 0.00 0.00 88 1014.4
20260906112440 24 333 3.2 3.2 0.00 0.00 0.00 87 1013.8
20260906110939 24 55 1.6 3.2 0.00 0.00 0.00 86 1013.8
20260906105438 23 334 1.6 3.2 0.00 0.00 0.00 87 1013.5
20260906103938 24 32 1.6 3.2 0.00 0.00 0.00 87 1013.6
20260906102438 24 20 3.2 4.8 0.00 0.00 0.00 86 1013.4
20260906100938 24 141 1.6 3.2 0.00 0.00 0.00 86 1013.6
20260906095440 24 327 3.2 4.8 0.00 0.00 0.00 86 1013.1
20260906093939 24 8 3.2 3.2 0.00 0.00 0.00 85 1013.1
20260906092439 25 0 0.0 1.6 0.00 0.00 0.00 84 1013.0
20260906090938 25 147 1.6 1.6 0.00 0.00 0.00 83 1012.8
20260906085438 25 11 1.6 4.8 0.00 0.00 0.00 82 1013.2
20260906083939 25 262 6.4 6.4 0.00 0.00 0.00 82 1012.7
20260906082438 25 14 1.6 3.2 0.00 0.00 0.00 81 1012.6
20260906080940 26 350 4.8 6.4 0.00 0.00 0.00 80 1012.6
20260906075440 26 22 3.2 4.8 0.00 0.00 0.00 79 1012.7
20260906073940 26 276 1.6 1.6 0.00 0.00 0.00 77 1012.7
20260906072441 26 360 3.2 4.8 0.00 0.00 0.00 78 1012.4
20260906071039 26 321 4.8 4.8 0.00 0.00 0.00 80 1012.9
20260906065432 26 328 1.6 1.6 0.00 0.00 0.00 82 1012.9
20260906063933 26 0 0.0 1.6 0.00 0.00 0.00 82 1013.0
20260906060932 26 0 0.0 1.6 0.00 0.00 0.00 82 1013.3
20260906055433 26 0 0.0 1.6 0.00 0.00 0.00 82 1013.0
20260906053932 27 0 0.0 0.0 0.00 0.00 0.00 80 1013.3
20260906052433 27 0 0.0 0.0 0.00 0.00 0.00 78 1013.1
20260906050932 27 0 0.0 1.6 0.00 0.00 0.00 77 1013.0
20260906045432 27 0 0.0 0.0 0.00 0.00 0.00 74 1013.0
20260906043933 27 0 0.0 1.6 0.00 0.00 0.00 72 1012.8
20260906042434 28 0 0.0 1.6 0.00 0.00 0.00 71 1012.6
20260906040933 28 350 1.6 1.6 0.00 0.00 0.00 71 1012.8
20260906035434 28 352 1.6 1.6 0.00 0.00 0.00 69 1012.7
20260906033933 28 4 1.6 1.6 0.00 0.00 0.00 70 1012.7
20260906032432 28 0 0.0 0.0 0.00 0.00 0.00 70 1012.9
20260906030933 29 0 0.0 0.0 0.00 0.00 0.00 68 1013.0
20260906025432 29 323 1.6 1.6 0.00 0.00 0.00 67 1012.8
20260906023934 30 325 1.6 1.6 0.00 0.00 0.00 67 1012.8
20260906022434 30 0 0.0 0.0 0.00 0.00 0.00 66 1012.8
20260906020933 30 0 0.0 1.6 0.00 0.00 0.00 64 1012.5
20260906015434 30 336 1.6 1.6 0.00 0.00 0.00 63 1012.4
20260906013933 31 0 0.0 1.6 0.00 0.00 0.00 61 1012.2
20260906012433 31 330 1.6 1.6 0.00 0.00 0.00 55 1012.1
20260906010933 32 339 1.6 1.6 0.00 0.00 0.00 54 1011.9
20260906005434 33 0 0.0 1.6 0.00 0.00 0.00 51 1011.7
20260906003932 33 0 0.0 0.0 0.00 0.00 0.00 48 1011.3
20260906002434 35 0 0.0 1.6 0.00 0.00 0.00 45 1011.6
20260905235434 35 0 0.0 0.0 0.00 0.00 0.00 42 1011.4
20260905232432 36 348 1.6 3.2 0.00 0.00 0.00 40 1011.1
20260905220934 38 0 0.0 3.2 0.00 0.00 0.00 37 1011.1
20260905213933 38 83 3.2 3.2 0.00 0.00 0.00 36 1011.2
20260905210934 38 327 4.8 4.8 0.00 0.00 0.00 33 1011.3
20260905203934 38 272 4.8 4.8 0.00 0.00 0.00 35 1011.9
20260905202433 38 0 0.0 1.6 0.00 0.00 0.00 36 1012.2
20260905195432 39 69 4.8 4.8 0.00 0.00 0.00 35 1012.7
20260905193934 38 0 0.0 4.8 0.00 0.00 0.00 38 1012.9
20260905192434 38 0 0.0 4.8 0.00 0.00 0.00 35 1013.1
20260905183934 37 0 0.0 1.6 0.00 0.00 0.00 38 1013.6
20260905180934 37 59 1.6 1.6 0.00 0.00 0.00 38 1013.8
20260905175433 37 0 0.0 1.6 0.00 0.00 0.00 38 1014.1
20260905172434 37 0 0.0 3.2 0.00 0.00 0.00 40 1014.6
20260905170934 35 326 4.8 6.4 0.00 0.00 0.00 44 1014.7
20260905165434 36 34 1.6 3.2 0.00 0.00 0.00 43 1014.8